Printer-friendly version

IAU Minor Planet Center

Minor Planet Center

MPEC 2003-M50 : 2003 MS2

The following Minor Planet Electronic Circular may be linked-to from your own Web pages, but must not otherwise be redistributed electronically.


Read MPEC 2003-M49 Read MPEC 2003-M51


M.P.E.C. 2003-M50                                Issued 2003 June 26, 16:25 UT

     The Minor Planet Electronic Circulars contain information on unusual
         minor planets and routine data on comets.  They are published
   on behalf of Commission 20 of the International Astronomical Union by the
          Minor Planet Center, Smithsonian Astrophysical Observatory,
                          Cambridge, MA 02138, U.S.A.

             Prepared using the Tamkin Foundation Computer Network

                              MPC@CFA.HARVARD.EDU
          URL http://cfa-www.harvard.edu/iau/mpc.html  ISSN 1523-6714

                                   2003 MS2

Observations:
     K03M02S* C2003 06 25.22113 16 21 05.74 +74 05 58.4          18.1 R      699
     K03M02S  C2003 06 25.24018 16 20 17.99 +74 08 18.6                      699
     K03M02S  C2003 06 25.25937 16 19 29.37 +74 10 36.8                      699
     K03M02S  C2003 06 25.27865 16 18 40.17 +74 12 54.6                      699
     K03M02S  C2003 06 25.34016 16 16 02.13 +74 20 00.4          17.7 R      699
     K03M02S  C2003 06 25.34205 16 15 57.32 +74 20 12.8                      699
     K03M02S  C2003 06 25.34398 16 15 51.97 +74 20 26.8                      699
     K03M02S  C2003 06 25.34590 16 15 47.13 +74 20 39.6                      699
     K03M02S  C2003 06 25.90237 15 50 21.08 +75 27 38.2          17.9 R      118
     K03M02S  C2003 06 25.90339 15 50 17.63 +75 27 45.2                      118
     K03M02S  C2003 06 25.90422 15 50 16.38 +75 27 51.0                      046
     K03M02S  C2003 06 25.90469 15 50 15.52 +75 27 53.4                      046
     K03M02S  C2003 06 25.90494 15 50 12.12 +75 27 55.7                      118
     K03M02S  C2003 06 25.90514 15 50 13.40 +75 27 57.7                      046
     K03M02S  C2003 06 25.90558 15 50 12.32 +75 28 00.8                      046
     K03M02S  C2003 06 25.90628 15 50 08.39 +75 28 04.3          17.8 R      118
     K03M02S  C2003 06 25.90671 15 50 08.23 +75 28 08.5                      046
     K03M02S  C2003 06 25.90718 15 50 06.91 +75 28 10.8                      046
     K03M02S  C2003 06 25.90868 15 49 59.95 +75 28 21.4          18.1 R      118
     K03M02S  C2003 06 25.92808 15 48 56.18 +75 30 28.9                      557
     K03M02S  C2003 06 25.92854 15 48 54.71 +75 30 31.7                      557
     K03M02S  C2003 06 25.92900 15 48 53.06 +75 30 34.6                      557
     K03M02S  C2003 06 25.92947 15 48 51.49 +75 30 37.7          18.0 V      557
     K03M02S  C2003 06 25.92993 15 48 49.92 +75 30 40.9                      557
     K03M02S  C2003 06 25.93041 15 48 48.34 +75 30 44.1                      557
     K03M02S  C2003 06 25.93088 15 48 46.94 +75 30 46.9                      557
     K03M02S  C2003 06 25.93134 15 48 45.22 +75 30 50.4                      557
     K03M02S  C2003 06 25.93181 15 48 43.54 +75 30 53.3                      557
     K03M02S  C2003 06 25.93227 15 48 42.03 +75 30 56.7                      557
     K03M02S  C2003 06 26.18524 15 34 43.83 +76 00 35.5          18.0 R      673
     K03M02S  C2003 06 26.19534 15 33 59.35 +76 01 52.3          17.8 R      926
     K03M02S  C2003 06 26.19574 15 33 57.73 +76 01 54.3          17.9 R      926
     K03M02S  C2003 06 26.19618 15 33 56.19 +76 01 57.3          17.7 R      926
     K03M02S  C2003 06 26.19647 15 34 00.04 +76 01 51.5          18.0 R      673
     K03M02S  C2003 06 26.20897 15 33 10.97 +76 03 15.2          18.0 R      673
     K03M02S  C2003 06 26.21991 15 32 27.93 +76 04 27.0          18.0 R      673

Observer details:
046 Klet.  Observers M. Tichy, M. Kocer.  0.57-m f/5.2 reflector + CCD.
118 Modra.  Observers J. Vilagi, L. Kornos.  0.6-m f/5.5 reflector + CCD.
557 Ondrejov.  Observer P. Kusnirak.  0.65-m f/3.6 reflector + CCD.
673 Table Mountain Observatory, Wrightwood.  Observers B. Herbert, J. Young.
    Measurer B. Schmidt.  0.6-m reflector + CCD.
699 Lowell Observatory-LONEOS.  Observer B. A. Skiff.  0.59-m LONEOS Schmidt
    + CCD.
926 Tenagra II Observatory.  Observers P. R. Holvorcem, M. Schwartz.  0.81-m
    f/7 Ritchey-Chretien + CCD.

Orbital elements:
2003 MS2                                                             PHA 0.009D
Epoch 2003 June 10.0 TT = JDT 2452800.5                 MPC
M 277.03383              (2000.0)            P               Q
n   0.92701912     Peri.  254.62656     +0.93941584     +0.06112605
a   1.0417022      Node   100.95914     +0.05091376     +0.94817486
e   0.1277618      Incl.   20.09336     -0.33897739     +0.31181410
P   1.06           H   21.1           G   0.15           U   7
Residuals in seconds of arc
030625 699  0.0   0.4+    030625 118  1.5-  0.6+    030625 557  0.3-  0.3-
030625 699  0.2+  0.6+    030625 046  0.4-  0.7+    030625 557  0.4+  0.6-
030625 699  0.2-  0.2-    030625 046  1.0+  0.8+    030625 557  0.2-  0.2-
030625 699  0.6-  0.0     030625 118  1.4+  0.1+    030625 557  0.5-  0.4-
030625 699  0.4+  0.3-    030625 046  0.1-  0.8+    030625 557  0.3-  0.1-
030625 699  0.8+  0.7-    030625 046  0.9+  0.1-    030626 673  0.2+  0.1-
030625 699  0.7-  0.3+    030625 118  0.1-  1.0+    030626 926  0.2-  0.3+
030625 699  0.2-  0.1+    030625 557  0.4-  0.1+    030626 926  0.4-  0.3-
030625 118  0.2-  0.5+    030625 557  0.1-  0.2-    030626 926  0.3+  0.2-
030625 118  0.3-  0.6+    030625 557  0.4-  0.4-    030626 673  0.1+  0.1-
030625 046  0.8-  0.3+    030625 557  0.4-  0.4-    030626 673  0.1-  0.2+
030625 046  1.9+  0.5-    030625 557  0.4-  0.3-    030626 673  0.3+  0.1+

Ephemeris:
2003 MS2                 a,e,i = 1.04, 0.13, 20                  q = 0.9086
Date    TT    R. A. (2000) Decl.     Delta      r     Elong.  Phase     V
2003 06 20    17 47.18   +65 43.1    0.083    1.021    90.8    84.5    18.7
2003 06 21    17 39.46   +66 55.9    0.077    1.019    89.6    86.1    18.6
2003 06 22    17 29.44   +68 18.7    0.071    1.016    88.1    87.9    18.5
2003 06 23    17 15.97   +69 53.0    0.065    1.014    86.3    90.1    18.4
2003 06 24    16 57.1    +71 39.5    0.059    1.012    84.1    92.5    18.3
2003 06 25    16 29.1    +73 37.2    0.054    1.010    81.5    95.5    18.2
2003 06 26    15 45.3    +75 37.6    0.048    1.008    78.2    99.1    18.1
2003 06 27    14 35.0    +77 12.4    0.043    1.006    74.1   103.6    18.1
2003 06 28    12 53.4    +77 11.7    0.038    1.003    68.8   109.1    18.1
2003 06 29    11 08.2    +74 03.9    0.034    1.001    62.1   116.2    18.3
2003 06 30    09 52.28   +67 17.3    0.030    0.999    53.6   125.0    18.7
2003 07 01    09 04.82   +57 13.9    0.027    0.997    43.1   135.8    19.6
2003 07 02    08 34.71   +44 39.6    0.026    0.995    31.5   147.7    21.2
2003 07 03    08 14.54   +30 59.1    0.026    0.993    21.2   158.3    23.5
2003 07 04    08 00.27   +17 58.4    0.027    0.991    17.1   162.5    25.2
2003 07 05    07 49.70   +06 51.5    0.030    0.989    20.8   158.6    24.0
2003 07 06    07 41.58   -02 02.4    0.034    0.987    26.9   152.2    22.6
2003 07 07    07 35.16   -08 58.3    0.038    0.985    32.6   146.2    21.8
2003 07 08    07 29.96   -14 21.2    0.043    0.982    37.3   141.1    21.3
2003 07 09    07 25.67   -18 33.9    0.049    0.980    41.2   137.0    21.0
2003 07 10    07 22.07   -21 54.2    0.054    0.978    44.3   133.5    20.8
2003 07 11    07 19.02   -24 35.2    0.060    0.976    46.8   130.7    20.7
2003 07 12    07 16.39   -26 46.2    0.066    0.974    48.9   128.2    20.7
2003 07 13    07 14.12   -28 34.1    0.072    0.973    50.6   126.1    20.7
2003 07 14    07 12.15   -30 03.8    0.078    0.971    52.0   124.3    20.7
2003 07 15    07 10.42   -31 19.2    0.084    0.969    53.3   122.7    20.7
2003 07 16    07 08.91   -32 22.9    0.090    0.967    54.3   121.3    20.7
2003 07 17    07 07.58   -33 17.0    0.096    0.965    55.3   120.0    20.8
2003 07 18    07 06.40   -34 03.3    0.102    0.963    56.1   118.9    20.8
2003 07 19    07 05.37   -34 43.0    0.108    0.961    56.8   117.8    20.9

2003 07 20    07 04.46   -35 17.1    0.115    0.959    57.4   116.9    20.9
2003 07 30    07 00.15   -37 55.5    0.176    0.942    60.8   109.8    21.4
2003 08 09    07 01.33   -37 51.8    0.234    0.928    62.2   104.9    21.7
2003 08 19    07 06.54   -36 34.8    0.288    0.918    63.0   100.8    21.9
2003 08 29    07 15.31   -34 38.5    0.336    0.911    63.5    97.2    22.0

Brian G. Marsden             (C) Copyright 2003 MPC           M.P.E.C. 2003-M50

Read MPEC 2003-M49 Read MPEC 2003-M51


Our Web policy. Index to the CBAT/MPC/ICQ pages.


Valid HTML 4.01!